Weather History for Blythe, CA

Change the Weather History Date:

Friday, March 22, 2013

  Actual Average Record
Temperature  
Mean Temperature 73 °F -  
Max Temperature 86 °F 80 °F 97 °F (2004)
Min Temperature 60 °F 53 °F 39 °F (2006)
Cooling Degree Days 8    
Growing Degree Days 23 (Base 50)    
Moisture  
Dew Point 18 °F    
Average Humidity 17    
Maximum Humidity 43    
Minimum Humidity 5    
Precipitation  
Precipitation 0.00 in - - ()
Sea Level Pressure  
Sea Level Pressure 29.70 in    
Wind  
Wind Speed 7 mph (NW)    
Max Wind Speed 16 mph    
Max Gust Speed 23 mph    
Visibility 10 miles    
Events      
Averages and records for this station are not official NWS values.
T = Trace of Precipitation, MM = Missing Value Source: NWS Daily Summary

Daily Weather History Graph

Daily Weather History Graph

Search for Another Location

Airport:

Trip Planner

Search our weather history database for the weather conditions in past years. The results will help you decide how hot, cold, wet, or windy it might be!

Date:

Astronomy

Mar. 22, 2013 Rise Set
Actual Time 6:39 AM PDT 6:52 PM PDT
Civil Twilight 6:14 AM PDT 7:17 PM PDT
Nautical Twilight 5:45 AM PDT 7:46 PM PDT
Astronomical Twilight 5:16 AM PDT 8:15 PM PDT
Moon 2:34 PM PDT (3/22) 3:30 AM PDT (3/22)
Length of Visible Light 13h 02m
Length of Day
12h 12m
Waxing Gibbous, 78% of the Moon is Illuminated
Mar 22
Waxing Gibbous
Mar 27
Full
Apr 2
Last Quarter
Apr 10
New
Apr 18
First Quarter

Hourly Weather History & Observations

Time (PDT) Temp. Dew Point Humidity Pressure Visibility Wind Dir Wind Speed Gust Speed Precip Events Conditions
12:52 AM 66.9 °F 39.0 °F 36% 29.63 in 10.0 mi South 5.8 mph - N/A   Clear
1:52 AM 62.1 °F 39.0 °F 43% 29.63 in 10.0 mi Variable 3.5 mph - N/A   Clear
2:52 AM 66.9 °F 34.0 °F 30% 29.64 in 10.0 mi Variable 5.8 mph - N/A   Clear
3:52 AM 64.0 °F 36.0 °F 35% 29.64 in 10.0 mi Calm Calm - N/A   Clear
4:52 AM 64.0 °F 25.0 °F 23% 29.65 in 10.0 mi WSW 3.5 mph - N/A   Clear
5:52 AM 61.0 °F 28.9 °F 30% 29.67 in 10.0 mi WNW 5.8 mph - N/A   Clear
6:52 AM 60.1 °F 30.9 °F 33% 29.69 in 10.0 mi WNW 6.9 mph - N/A   Clear
7:52 AM 64.0 °F 33.1 °F 31% 29.71 in 10.0 mi WNW 9.2 mph - N/A   Clear
8:52 AM 69.1 °F 33.1 °F 26% 29.74 in 10.0 mi NNW 10.4 mph - N/A   Clear
9:52 AM 75.0 °F 30.0 °F 19% 29.75 in 10.0 mi North 10.4 mph - N/A   Clear
10:52 AM 78.1 °F 19.9 °F 11% 29.75 in 10.0 mi NNW 12.7 mph - N/A   Clear
11:52 AM 81.0 °F 19.0 °F 10% 29.74 in 10.0 mi NNW 13.8 mph - N/A   Clear
12:52 PM 82.9 °F 18.0 °F 9% 29.73 in 10.0 mi North 16.1 mph 23.0 mph N/A   Clear
1:52 PM 84.9 °F 16.0 °F 8% 29.71 in 10.0 mi North 13.8 mph 20.7 mph N/A   Clear
2:52 PM 86.0 °F 15.1 °F 7% 29.69 in 10.0 mi NW 11.5 mph 20.7 mph N/A   Clear
4:52 PM 84.9 °F 14.0 °F 7% 29.67 in 10.0 mi NNW 10.4 mph - N/A   Clear
5:52 PM 84.0 °F 6.1 °F 5% 29.67 in 10.0 mi NW 13.8 mph - N/A   Clear
6:52 PM 80.1 °F 3.0 °F 5% 29.68 in 10.0 mi NNW 9.2 mph - N/A   Clear
7:52 PM 72.0 °F -0.0 °F 6% 29.69 in 10.0 mi WNW 8.1 mph - N/A   Clear
8:52 PM 66.9 °F -0.9 °F 7% 29.72 in 10.0 mi NW 4.6 mph - N/A   Clear
9:52 PM 64.9 °F -5.1 °F 6% 29.74 in 10.0 mi NNW 10.4 mph - N/A   Clear
10:52 PM 66.9 °F -9.0 °F 5% 29.75 in 10.0 mi NNW 5.8 mph - N/A   Clear
11:52 PM 66.9 °F -7.1 °F 5% 29.78 in 10.0 mi WSW 5.8 mph - N/A   Clear